This is the latest recevied weather packets stored in our database for station/object OE-11053. If no packets are shown the sender has not sent any weather packets the latest 10 day(s).
| Time | Temp. | Humidity | Pressure | Rain* | Wind** | Luminosity | Snow |
|---|---|---|---|---|---|---|---|
| 1787601321 | 20° C | 55% | 1014.6 hPa | - | - | - | - |
| 1787600494 | 20° C | 57% | 1014.5 hPa | - | - | - | - |
| 1787600121 | 20° C | 60% | 1014.6 hPa | - | - | - | - |
| 1787599520 | 20.56° C | 59% | 1014.6 hPa | - | - | - | - |
| 1787598694 | 20.56° C | 58% | 1014.6 hPa | - | - | - | - |
| 1787598320 | 21.11° C | 58% | 1014.4 hPa | - | - | - | - |
| 1787597721 | 20.56° C | 58% | 1014.4 hPa | - | - | - | - |
| 1787596894 | 20.56° C | 59% | 1014.3 hPa | - | - | - | - |
| 1787596520 | 21.11° C | 59% | 1014.3 hPa | - | - | - | - |
| 1787595921 | 21.67° C | 54% | 1014.2 hPa | - | - | - | - |
| 1787595094 | 21.67° C | 53% | 1014.4 hPa | - | - | - | - |
| 1787594721 | 22.22° C | 51% | 1014.3 hPa | - | - | - | - |
| 1787594119 | 22.78° C | 50% | 1014.3 hPa | - | - | - | - |
| 1787593294 | 22.78° C | 49% | 1014.3 hPa | - | - | - | - |
| 1787592920 | 23.33° C | 48% | 1014.3 hPa | - | - | - | - |
| 1787592321 | 23.33° C | 47% | 1014.4 hPa | - | - | - | - |
| 1787591494 | 23.33° C | 46% | 1014.7 hPa | - | - | - | - |
| 1787591120 | 23.89° C | 46% | 1014.8 hPa | - | - | - | - |
| 1787590520 | 23.33° C | 45% | 1015 hPa | - | - | - | - |
| 1787589693 | 23.89° C | 44% | 1015.2 hPa | - | - | - | - |
| 1787589317 | 23.89° C | 43% | 1015.2 hPa | - | - | - | - |
| 1787588715 | 24.44° C | 43% | 1015.3 hPa | - | - | - | - |
| 1787587890 | 24.44° C | 42% | 1015.4 hPa | - | - | - | - |
| 1787587515 | 24.44° C | 42% | 1015.4 hPa | - | - | - | - |
| 1787586915 | 24.44° C | 42% | 1015.7 hPa | - | - | - | - |
* Rain since midnight (hover to see other rain measurements)
** Current wind speed in m/s (hover to see current wind gust speed)